DLH5DK EDDM-DTTA

Flight info

Callsign DLH5DK
Flight time 1h 55m
Altitude 37000
Route TURBU Y107 TOBSO DCT BAKOR DCT TIPNI DCT QUENN DCT NOLSI UA868 MEDAR
Aircraft A320/M-SDE2E3FGIJ1LORWXYZ/HB1

Departure

Time 2026-05-06 08:05
Airport Munich Airport (EDDM)

Arrival

Time 2026-05-06 10:00
Airport Tunis Carthage International Airport (DTTA)
Time Latitude Longitude Altitude Speed Heading
2026-05-06 07:41 48.35245 11.79773 1478 ft 0 kts 83°
2026-05-06 07:58 48.35245 11.79768 1485 ft 2 kts 83°
2026-05-06 07:58 48.35243 11.79741 1475 ft 3 kts 83°
2026-05-06 07:58 48.35241 11.79710 1474 ft 3 kts 83°
2026-05-06 07:58 48.35238 11.79681 1477 ft 3 kts 89°
2026-05-06 07:59 48.35241 11.79653 1476 ft 3 kts 117°
2026-05-06 07:59 48.35252 11.79631 1483 ft 3 kts 151°
2026-05-06 07:59 48.35265 11.79623 1476 ft 1 kts 173°
2026-05-06 07:59 48.35274 11.79621 1479 ft 3 kts 173°
2026-05-06 08:00 48.35283 11.79619 1485 ft 0 kts 173°
2026-05-06 08:02 48.35282 11.79620 1485 ft 2 kts 173°
2026-05-06 08:02 48.35236 11.79628 1478 ft 11 kts 173°
2026-05-06 08:02 48.35126 11.79647 1485 ft 20 kts 173°
2026-05-06 08:02 48.34977 11.79673 1474 ft 22 kts 173°
2026-05-06 08:03 48.34817 11.79701 1479 ft 24 kts 173°
2026-05-06 08:03 48.34673 11.79640 1480 ft 23 kts 233°
2026-05-06 08:03 48.34574 11.79440 1473 ft 25 kts 233°
2026-05-06 08:03 48.34468 11.79228 1482 ft 26 kts 233°
2026-05-06 08:04 48.34380 11.79048 1476 ft 15 kts 240°
2026-05-06 08:04 48.34352 11.78790 1485 ft 52 kts 263°
2026-05-06 08:04 48.34282 11.77876 1486 ft 120 kts 263°
2026-05-06 08:04 48.34165 11.76356 1524 ft 168 kts 263°
2026-05-06 08:05 48.34033 11.74609 2256 ft 166 kts 263°
2026-05-06 08:05 48.33865 11.72884 2953 ft 171 kts 251°
2026-05-06 08:05 48.33140 11.71377 3301 ft 192 kts 213°
2026-05-06 08:05 48.31819 11.70811 3582 ft 215 kts 181°
2026-05-06 08:06 48.30284 11.70769 4270 ft 223 kts 180°
2026-05-06 08:06 48.28746 11.71040 5136 ft 224 kts 161°
2026-05-06 08:06 48.27315 11.72172 5674 ft 245 kts 145°
2026-05-06 08:06 48.25854 11.73694 6264 ft 263 kts 146°
2026-05-06 08:07 48.24336 11.75260 7117 ft 267 kts 146°
2026-05-06 08:07 48.22769 11.76861 8025 ft 271 kts 147°
2026-05-06 08:07 48.21216 11.78433 8900 ft 275 kts 148°
2026-05-06 08:07 48.19616 11.80046 9781 ft 279 kts 148°
2026-05-06 08:08 48.17955 11.81585 10579 ft 282 kts 156°
2026-05-06 08:08 48.16074 11.82669 11009 ft 301 kts 163°
2026-05-06 08:08 48.14024 11.83698 11405 ft 318 kts 163°
2026-05-06 08:08 48.11895 11.84746 12127 ft 324 kts 163°
2026-05-06 08:09 48.09740 11.85802 12925 ft 328 kts 164°
2026-05-06 08:09 48.07565 11.86871 13715 ft 330 kts 164°
2026-05-06 08:09 48.05370 11.87953 14402 ft 334 kts 164°
2026-05-06 08:09 48.03154 11.89048 15054 ft 338 kts 164°
2026-05-06 08:10 48.00911 11.90158 15720 ft 341 kts 165°
2026-05-06 08:10 47.98643 11.91279 16376 ft 345 kts 165°
2026-05-06 08:10 47.96350 11.92416 17037 ft 349 kts 165°
2026-05-06 08:10 47.94037 11.93563 17698 ft 352 kts 165°
2026-05-06 08:11 47.91673 11.94543 18286 ft 353 kts 173°
2026-05-06 08:11 47.89233 11.94841 18860 ft 352 kts 184°
2026-05-06 08:11 47.86781 11.94781 19465 ft 353 kts 184°
2026-05-06 08:11 47.84317 11.94730 20083 ft 355 kts 184°
2026-05-06 08:12 47.81843 11.94684 20670 ft 356 kts 184°
2026-05-06 08:12 47.79358 11.94642 21269 ft 357 kts 184°
2026-05-06 08:12 47.76868 11.94598 21867 ft 358 kts 184°
2026-05-06 08:12 47.74370 11.94551 22454 ft 360 kts 185°
2026-05-06 08:13 47.71858 11.94501 23027 ft 362 kts 185°
2026-05-06 08:13 47.69333 11.94456 23542 ft 364 kts 185°
2026-05-06 08:13 47.66796 11.94411 23953 ft 366 kts 185°
2026-05-06 08:13 47.64239 11.94365 24362 ft 368 kts 185°
2026-05-06 08:14 47.61671 11.94320 24838 ft 369 kts 185°
2026-05-06 08:14 47.59102 11.94278 25286 ft 369 kts 185°
2026-05-06 08:14 47.56522 11.94236 25696 ft 372 kts 185°
2026-05-06 08:14 47.53923 11.94192 26126 ft 375 kts 185°
2026-05-06 08:15 47.51309 11.94144 26586 ft 377 kts 185°
2026-05-06 08:15 47.48678 11.94100 27034 ft 379 kts 185°
2026-05-06 08:15 47.46035 11.94055 27465 ft 381 kts 185°
2026-05-06 08:15 47.43382 11.93987 27863 ft 381 kts 187°
2026-05-06 08:16 47.40751 11.93541 28246 ft 381 kts 192°
2026-05-06 08:16 47.38117 11.93015 28611 ft 384 kts 191°
2026-05-06 08:16 47.35457 11.92484 28932 ft 387 kts 191°
2026-05-06 08:16 47.32782 11.91948 29305 ft 389 kts 191°
2026-05-06 08:17 47.30087 11.91410 29680 ft 392 kts 192°
2026-05-06 08:17 47.27378 11.90866 30031 ft 394 kts 192°
2026-05-06 08:17 47.24657 11.90321 30365 ft 396 kts 192°
2026-05-06 08:17 47.21920 11.89776 30672 ft 398 kts 192°
2026-05-06 08:18 47.19175 11.89230 30923 ft 399 kts 192°
2026-05-06 08:18 47.16417 11.88678 31210 ft 401 kts 192°
2026-05-06 08:18 47.13646 11.88127 31481 ft 402 kts 192°
2026-05-06 08:18 47.10875 11.87580 31844 ft 402 kts 192°
2026-05-06 08:19 47.08109 11.87035 32282 ft 400 kts 192°
2026-05-06 08:19 47.05353 11.86493 32744 ft 399 kts 192°
2026-05-06 08:19 47.02606 11.85952 33261 ft 398 kts 192°
2026-05-06 08:19 46.99883 11.85340 33750 ft 394 kts 195°
2026-05-06 08:20 46.97199 11.84572 34111 ft 392 kts 197°
2026-05-06 08:20 46.94543 11.83707 34434 ft 391 kts 197°
2026-05-06 08:20 46.91892 11.82795 34668 ft 392 kts 198°
2026-05-06 08:20 46.89236 11.81875 34936 ft 393 kts 197°
2026-05-06 08:21 46.86570 11.80971 35170 ft 394 kts 197°
2026-05-06 08:21 46.83891 11.80091 35444 ft 395 kts 197°
2026-05-06 08:21 46.81203 11.79232 35708 ft 396 kts 196°
2026-05-06 08:21 46.78508 11.78390 35909 ft 397 kts 196°
2026-05-06 08:22 46.75804 11.77551 36105 ft 398 kts 196°
2026-05-06 08:22 46.73097 11.76710 36384 ft 398 kts 197°
2026-05-06 08:22 46.70389 11.75863 36563 ft 399 kts 196°
2026-05-06 08:22 46.67675 11.75009 36786 ft 399 kts 196°
2026-05-06 08:23 46.64958 11.74151 36906 ft 400 kts 196°
2026-05-06 08:23 46.62245 11.73291 36924 ft 399 kts 196°
2026-05-06 08:23 46.56786 11.71752 36925 ft 400 kts 194°
2026-05-06 08:24 46.51294 11.70557 36928 ft 398 kts 193°
2026-05-06 08:24 46.45814 11.69390 36930 ft 398 kts 193°
2026-05-06 08:25 46.40343 11.68154 36939 ft 398 kts 193°
2026-05-06 08:25 46.34881 11.66889 36932 ft 397 kts 193°
2026-05-06 08:26 46.29421 11.65634 36938 ft 397 kts 194°
2026-05-06 08:26 46.23973 11.64391 36951 ft 396 kts 194°
2026-05-06 08:27 46.18532 11.63154 36939 ft 396 kts 193°
2026-05-06 08:27 46.13089 11.61915 36935 ft 396 kts 193°
2026-05-06 08:28 46.07645 11.60686 36935 ft 396 kts 193°
2026-05-06 08:28 46.02201 11.59451 36944 ft 396 kts 194°
2026-05-06 08:29 45.96757 11.58226 36949 ft 396 kts 194°
2026-05-06 08:29 45.91324 11.56997 36958 ft 395 kts 194°
2026-05-06 08:30 45.85901 11.55770 36955 ft 394 kts 194°
2026-05-06 08:30 45.80488 11.54555 36950 ft 393 kts 193°
2026-05-06 08:31 45.75081 11.53353 36955 ft 393 kts 194°
2026-05-06 08:31 45.69685 11.52144 36952 ft 392 kts 194°
2026-05-06 08:32 45.64301 11.50940 36949 ft 392 kts 194°
2026-05-06 08:32 45.58914 11.49736 36950 ft 391 kts 194°
2026-05-06 08:33 45.53545 11.48543 36941 ft 390 kts 194°
2026-05-06 08:33 45.48185 11.47355 36944 ft 389 kts 194°
2026-05-06 08:34 45.40158 11.45576 36947 ft 389 kts 194°
2026-05-06 08:35 45.34810 11.44400 36934 ft 389 kts 194°
2026-05-06 08:35 45.29462 11.43221 36935 ft 389 kts 194°
2026-05-06 08:36 45.24121 11.42036 36933 ft 389 kts 194°
2026-05-06 08:36 45.18775 11.40864 36921 ft 389 kts 194°
2026-05-06 08:37 45.13427 11.39696 36925 ft 389 kts 194°
2026-05-06 08:37 45.08081 11.38528 36929 ft 389 kts 194°
2026-05-06 08:38 45.02730 11.37362 36932 ft 389 kts 194°
2026-05-06 08:38 44.97377 11.36195 36920 ft 389 kts 194°
2026-05-06 08:39 44.92063 11.35036 36927 ft 389 kts 194°
2026-05-06 08:39 44.86707 11.33875 36927 ft 389 kts 194°
2026-05-06 08:40 44.81354 11.32713 36905 ft 389 kts 194°
2026-05-06 08:40 44.75996 11.31559 36902 ft 389 kts 194°
2026-05-06 08:41 44.70637 11.30407 36897 ft 390 kts 194°
2026-05-06 08:41 44.65277 11.29246 36897 ft 390 kts 194°
2026-05-06 08:42 44.60778 11.28270 36882 ft 390 kts 193°
2026-05-06 08:42 44.55420 11.27121 36879 ft 389 kts 193°
2026-05-06 08:43 44.50060 11.25980 36879 ft 390 kts 193°
2026-05-06 08:43 44.44733 11.24840 36944 ft 390 kts 193°
2026-05-06 08:44 44.39368 11.23691 36932 ft 391 kts 193°
2026-05-06 08:44 44.33993 11.22544 36935 ft 391 kts 193°
2026-05-06 08:45 44.28572 11.21410 36945 ft 392 kts 193°
2026-05-06 08:45 44.23157 11.20457 36949 ft 393 kts 192°
2026-05-06 08:46 44.17730 11.19566 36953 ft 393 kts 192°
2026-05-06 08:46 44.12342 11.18659 36957 ft 393 kts 192°
2026-05-06 08:47 44.06917 11.17723 36958 ft 393 kts 192°
2026-05-06 08:47 44.01494 11.16783 36934 ft 393 kts 192°
2026-05-06 08:48 43.96068 11.15842 36938 ft 393 kts 192°
2026-05-06 08:48 43.90636 11.14910 36938 ft 393 kts 192°
2026-05-06 08:49 43.85204 11.13981 36929 ft 393 kts 192°
2026-05-06 08:49 43.79773 11.13044 36936 ft 394 kts 192°
2026-05-06 08:50 43.74338 11.12113 36931 ft 394 kts 192°
2026-05-06 08:50 43.68897 11.11186 36954 ft 394 kts 192°
2026-05-06 08:51 43.63452 11.10253 36945 ft 394 kts 191°
2026-05-06 08:51 43.58006 11.09326 36975 ft 394 kts 191°
2026-05-06 08:52 43.52561 11.08402 36977 ft 394 kts 191°
2026-05-06 08:52 43.47113 11.07474 36970 ft 394 kts 191°
2026-05-06 08:53 43.41661 11.06554 36977 ft 395 kts 191°
2026-05-06 08:53 43.36210 11.05637 36984 ft 395 kts 191°
2026-05-06 08:54 43.30755 11.04719 36986 ft 395 kts 191°
2026-05-06 08:54 43.25305 11.03807 36966 ft 395 kts 191°
2026-05-06 08:55 43.19845 11.02881 36972 ft 396 kts 191°
2026-05-06 08:55 43.14378 11.01961 36976 ft 396 kts 191°
2026-05-06 08:56 43.08908 11.01056 36971 ft 396 kts 191°
2026-05-06 08:56 43.03471 11.00152 36979 ft 396 kts 191°
2026-05-06 08:57 42.97998 10.99236 36979 ft 396 kts 191°
2026-05-06 08:57 42.92484 10.98314 36983 ft 397 kts 191°
2026-05-06 08:58 42.87044 10.97405 36940 ft 397 kts 191°
2026-05-06 08:58 42.81562 10.96493 36940 ft 397 kts 191°
2026-05-06 08:59 42.76084 10.95589 36941 ft 397 kts 191°
2026-05-06 08:59 42.70605 10.94684 36945 ft 397 kts 191°
2026-05-06 09:00 42.65127 10.93778 36942 ft 396 kts 191°
2026-05-06 09:00 42.59653 10.92884 36959 ft 396 kts 191°
2026-05-06 09:01 42.54182 10.91992 36973 ft 396 kts 191°
2026-05-06 09:01 42.48710 10.91085 36977 ft 396 kts 191°
2026-05-06 09:02 42.43241 10.90183 36988 ft 396 kts 191°
2026-05-06 09:02 42.37770 10.89290 36990 ft 396 kts 191°
2026-05-06 09:03 42.32302 10.88399 36994 ft 396 kts 191°
2026-05-06 09:03 42.26831 10.87506 36994 ft 396 kts 191°
2026-05-06 09:04 42.21365 10.86624 36981 ft 396 kts 191°
2026-05-06 09:04 42.15896 10.85738 36976 ft 396 kts 191°
2026-05-06 09:05 42.10430 10.84843 36976 ft 396 kts 191°
2026-05-06 09:05 42.04964 10.83961 36961 ft 396 kts 190°
2026-05-06 09:06 41.99493 10.83076 36964 ft 396 kts 191°
2026-05-06 09:06 41.94025 10.82193 36967 ft 396 kts 191°
2026-05-06 09:07 41.88554 10.81311 36971 ft 396 kts 190°
2026-05-06 09:07 41.83082 10.80434 36967 ft 396 kts 191°
2026-05-06 09:08 41.77608 10.79548 36969 ft 396 kts 191°
2026-05-06 09:08 41.72131 10.78671 36972 ft 396 kts 190°
2026-05-06 09:09 41.66655 10.77800 36966 ft 396 kts 190°
2026-05-06 09:09 41.61173 10.76929 36966 ft 397 kts 191°
2026-05-06 09:10 41.55690 10.76051 36973 ft 397 kts 191°
2026-05-06 09:10 41.50202 10.75177 36977 ft 397 kts 191°
2026-05-06 09:11 41.44714 10.74312 36965 ft 397 kts 191°
2026-05-06 09:11 41.39220 10.73443 36970 ft 398 kts 191°
2026-05-06 09:12 41.33723 10.72574 36981 ft 398 kts 191°
2026-05-06 09:12 41.28229 10.71697 36981 ft 398 kts 191°
2026-05-06 09:13 41.22729 10.70826 36965 ft 398 kts 191°
2026-05-06 09:13 41.17258 10.69971 36972 ft 399 kts 191°
2026-05-06 09:14 41.11709 10.69106 36980 ft 399 kts 191°
2026-05-06 09:14 41.06231 10.68245 36960 ft 399 kts 191°
2026-05-06 09:15 41.00714 10.67383 36967 ft 400 kts 191°
2026-05-06 09:15 40.95183 10.66522 36973 ft 400 kts 191°
2026-05-06 09:16 40.89608 10.65649 36979 ft 401 kts 191°
2026-05-06 09:16 40.84065 10.64788 36968 ft 401 kts 191°
2026-05-06 09:17 40.78557 10.63923 36978 ft 402 kts 191°
2026-05-06 09:17 40.73002 10.63056 36988 ft 402 kts 191°
2026-05-06 09:18 40.67441 10.62195 36992 ft 402 kts 191°
2026-05-06 09:18 40.61876 10.61333 36988 ft 403 kts 191°
2026-05-06 09:19 40.56300 10.60467 36994 ft 403 kts 191°
2026-05-06 09:19 40.50725 10.59604 37001 ft 403 kts 191°
2026-05-06 09:20 40.45155 10.58745 37007 ft 403 kts 191°
2026-05-06 09:20 40.39587 10.57890 36991 ft 403 kts 191°
2026-05-06 09:21 40.34017 10.57042 37014 ft 403 kts 191°
2026-05-06 09:21 40.28450 10.56187 37010 ft 403 kts 191°
2026-05-06 09:22 40.22880 10.55336 37006 ft 403 kts 191°
2026-05-06 09:22 40.17315 10.54488 37005 ft 403 kts 191°
2026-05-06 09:23 40.11740 10.53713 37005 ft 403 kts 189°
2026-05-06 09:23 40.06155 10.53049 37002 ft 403 kts 189°
2026-05-06 09:24 40.00571 10.52386 36999 ft 403 kts 189°
2026-05-06 09:24 39.94991 10.51696 36981 ft 403 kts 190°
2026-05-06 09:25 39.89407 10.50993 36988 ft 403 kts 190°
2026-05-06 09:25 39.84762 10.50418 36997 ft 404 kts 190°
2026-05-06 09:26 39.79170 10.49725 37005 ft 404 kts 190°
2026-05-06 09:26 39.73582 10.49029 36992 ft 404 kts 190°
2026-05-06 09:27 39.67987 10.48343 36991 ft 404 kts 190°
2026-05-06 09:27 39.62391 10.47658 37001 ft 404 kts 190°
2026-05-06 09:28 39.56793 10.46968 37008 ft 404 kts 190°
2026-05-06 09:28 39.51190 10.46287 36991 ft 404 kts 190°
2026-05-06 09:29 39.45588 10.45603 36995 ft 405 kts 190°
2026-05-06 09:29 39.39976 10.44918 36996 ft 405 kts 190°
2026-05-06 09:30 39.34360 10.44229 37000 ft 405 kts 190°
2026-05-06 09:30 39.28741 10.43549 36996 ft 406 kts 191°
2026-05-06 09:31 39.23113 10.42867 36996 ft 406 kts 191°
2026-05-06 09:31 39.17483 10.42177 37001 ft 407 kts 191°
2026-05-06 09:31 39.14661 10.41836 36833 ft 408 kts 191°
2026-05-06 09:32 39.11841 10.41496 36567 ft 407 kts 191°
2026-05-06 09:32 39.09024 10.41157 36279 ft 407 kts 191°
2026-05-06 09:32 39.06201 10.40821 36021 ft 408 kts 191°
2026-05-06 09:32 39.03379 10.40483 35714 ft 408 kts 191°
2026-05-06 09:33 39.00555 10.40145 35285 ft 407 kts 191°
2026-05-06 09:33 38.97741 10.39807 34863 ft 404 kts 191°
2026-05-06 09:33 38.94953 10.39469 34449 ft 400 kts 191°
2026-05-06 09:33 38.92194 10.39137 34047 ft 396 kts 191°
2026-05-06 09:34 38.89463 10.38810 33583 ft 392 kts 191°
2026-05-06 09:34 38.86756 10.38486 33244 ft 390 kts 191°
2026-05-06 09:34 38.84051 10.38160 32979 ft 390 kts 191°
2026-05-06 09:34 38.81354 10.37833 32713 ft 389 kts 191°
2026-05-06 09:35 38.78662 10.37506 32454 ft 388 kts 191°
2026-05-06 09:35 38.75979 10.37182 32189 ft 386 kts 191°
2026-05-06 09:35 38.73306 10.36860 31928 ft 385 kts 191°
2026-05-06 09:35 38.70643 10.36542 31677 ft 384 kts 191°
2026-05-06 09:36 38.67989 10.36228 31424 ft 382 kts 191°
2026-05-06 09:36 38.65344 10.35915 31159 ft 381 kts 191°
2026-05-06 09:36 38.62706 10.35602 30912 ft 381 kts 191°
2026-05-06 09:36 38.60070 10.35286 30667 ft 380 kts 191°
2026-05-06 09:37 38.57442 10.34971 30418 ft 379 kts 191°
2026-05-06 09:37 38.54822 10.34660 30177 ft 377 kts 191°
2026-05-06 09:37 38.52212 10.34350 29915 ft 376 kts 191°
2026-05-06 09:37 38.49611 10.34039 29634 ft 375 kts 191°
2026-05-06 09:38 38.47021 10.33732 29359 ft 373 kts 191°
2026-05-06 09:38 38.44446 10.33426 29081 ft 371 kts 191°
2026-05-06 09:38 38.41878 10.33120 28790 ft 370 kts 191°
2026-05-06 09:38 38.39313 10.32812 28520 ft 370 kts 191°
2026-05-06 09:39 38.36754 10.32505 28253 ft 369 kts 191°
2026-05-06 09:39 38.34204 10.32202 27988 ft 367 kts 190°
2026-05-06 09:39 38.31667 10.31905 27727 ft 366 kts 190°
2026-05-06 09:39 38.29137 10.31609 27467 ft 364 kts 190°
2026-05-06 09:40 38.26619 10.31312 27197 ft 363 kts 190°
2026-05-06 09:40 38.24111 10.31014 26953 ft 361 kts 190°
2026-05-06 09:40 38.19130 10.30426 26437 ft 359 kts 190°
2026-05-06 09:41 38.16644 10.30135 26184 ft 358 kts 190°
2026-05-06 09:41 38.14171 10.29844 25938 ft 357 kts 190°
2026-05-06 09:41 38.11704 10.29555 25695 ft 355 kts 189°
2026-05-06 09:41 38.09246 10.29268 25454 ft 354 kts 189°
2026-05-06 09:42 38.06797 10.28983 25214 ft 353 kts 189°
2026-05-06 09:42 38.04358 10.28700 24977 ft 351 kts 189°
2026-05-06 09:42 38.01926 10.28464 24741 ft 351 kts 188°
2026-05-06 09:42 37.99487 10.28316 24507 ft 350 kts 187°
2026-05-06 09:43 37.97058 10.28217 24189 ft 349 kts 186°
2026-05-06 09:43 37.94638 10.28138 23800 ft 347 kts 186°
2026-05-06 09:43 37.92235 10.28058 23376 ft 344 kts 186°
2026-05-06 09:43 37.89849 10.27963 22923 ft 342 kts 186°
2026-05-06 09:44 37.87481 10.27859 22469 ft 339 kts 186°
2026-05-06 09:44 37.85129 10.27749 22025 ft 337 kts 186°
2026-05-06 09:44 37.82792 10.27636 21588 ft 335 kts 186°
2026-05-06 09:44 37.80503 10.27525 21163 ft 333 kts 186°
2026-05-06 09:45 37.78195 10.27412 20737 ft 331 kts 186°
2026-05-06 09:45 37.75902 10.27298 20323 ft 329 kts 186°
2026-05-06 09:45 37.73622 10.27185 19899 ft 327 kts 186°
2026-05-06 09:45 37.71359 10.27075 19493 ft 325 kts 186°
2026-05-06 09:46 37.69108 10.26968 19088 ft 323 kts 186°
2026-05-06 09:46 37.66871 10.26853 18692 ft 321 kts 186°
2026-05-06 09:46 37.64648 10.26732 18300 ft 319 kts 186°
2026-05-06 09:46 37.62439 10.26611 17846 ft 317 kts 186°
2026-05-06 09:47 37.60242 10.26488 17407 ft 315 kts 186°
2026-05-06 09:47 37.58055 10.26362 16960 ft 314 kts 187°
2026-05-06 09:47 37.55919 10.25973 16529 ft 309 kts 195°
2026-05-06 09:47 37.53830 10.25358 16101 ft 307 kts 196°
2026-05-06 09:48 37.51758 10.24726 15678 ft 306 kts 196°
2026-05-06 09:48 37.49692 10.24090 15250 ft 305 kts 197°
2026-05-06 09:48 37.47633 10.23462 14842 ft 304 kts 197°
2026-05-06 09:48 37.45575 10.22834 14440 ft 305 kts 196°
2026-05-06 09:49 37.43516 10.22201 14039 ft 304 kts 197°
2026-05-06 09:49 37.41462 10.21569 13627 ft 304 kts 196°
2026-05-06 09:49 37.39417 10.20916 13167 ft 302 kts 197°
2026-05-06 09:49 37.37404 10.20195 12755 ft 300 kts 198°
2026-05-06 09:50 37.35414 10.19428 12325 ft 298 kts 198°
2026-05-06 09:50 37.33417 10.18626 11910 ft 296 kts 199°
2026-05-06 09:50 37.31467 10.17827 11535 ft 293 kts 199°
2026-05-06 09:50 37.29534 10.17031 11168 ft 291 kts 199°
2026-05-06 09:51 37.27616 10.16243 10781 ft 289 kts 198°
2026-05-06 09:51 37.25716 10.15466 10420 ft 286 kts 198°
2026-05-06 09:51 37.23829 10.14698 10069 ft 284 kts 198°
2026-05-06 09:51 37.21951 10.13936 9693 ft 283 kts 198°
2026-05-06 09:52 37.20079 10.13178 9306 ft 282 kts 198°
2026-05-06 09:52 37.18215 10.12424 8922 ft 281 kts 198°
2026-05-06 09:52 37.16360 10.11676 8539 ft 279 kts 198°
2026-05-06 09:52 37.14519 10.10933 8163 ft 277 kts 198°
2026-05-06 09:53 37.12691 10.10218 7790 ft 274 kts 194°
2026-05-06 09:53 37.10804 10.10186 7460 ft 273 kts 168°
2026-05-06 09:53 37.09118 10.11248 7043 ft 274 kts 141°
2026-05-06 09:53 37.08008 10.13172 6539 ft 277 kts 113°
2026-05-06 09:54 37.07659 10.15546 6014 ft 280 kts 95°
2026-05-06 09:54 37.07583 10.17977 5497 ft 278 kts 94°
2026-05-06 09:54 37.07534 10.20367 4934 ft 270 kts 93°
2026-05-06 09:54 37.07491 10.22691 4350 ft 264 kts 93°
2026-05-06 09:55 37.07437 10.24955 3778 ft 256 kts 98°
2026-05-06 09:55 37.06786 10.26873 3564 ft 229 kts 137°
2026-05-06 09:55 37.05477 10.27717 3547 ft 204 kts 169°
2026-05-06 09:55 37.04105 10.27762 3409 ft 193 kts 185°
2026-05-06 09:56 37.02807 10.27503 3180 ft 185 kts 189°
2026-05-06 09:56 37.01562 10.27183 2947 ft 180 kts 189°
2026-05-06 09:56 37.00348 10.26857 2719 ft 177 kts 189°
2026-05-06 09:56 36.99157 10.26533 2481 ft 173 kts 188°
2026-05-06 09:57 36.97995 10.26215 2265 ft 169 kts 187°
2026-05-06 09:57 36.96849 10.25903 2034 ft 168 kts 187°
2026-05-06 09:57 36.95716 10.25593 1831 ft 165 kts 186°
2026-05-06 09:57 36.94600 10.25289 1600 ft 163 kts 187°
2026-05-06 09:58 36.93524 10.24994 1392 ft 150 kts 187°
2026-05-06 09:58 36.92558 10.24728 1190 ft 136 kts 186°
2026-05-06 09:58 36.91654 10.24482 1016 ft 131 kts 186°
2026-05-06 09:58 36.90770 10.24243 847 ft 130 kts 187°
2026-05-06 09:59 36.89886 10.24003 659 ft 131 kts 188°
2026-05-06 09:59 36.88979 10.23768 491 ft 135 kts 190°
2026-05-06 09:59 36.88048 10.23503 335 ft 138 kts 191°
2026-05-06 09:59 36.87101 10.23245 125 ft 141 kts 189°
2026-05-06 10:00 36.86166 10.22990 33 ft 127 kts 192°
2026-05-06 10:00 36.85445 10.22793 33 ft 88 kts 192°
2026-05-06 10:00 36.84904 10.22645 33 ft 72 kts 192°
2026-05-06 10:00 36.84599 10.22549 28 ft 28 kts 208°
2026-05-06 10:01 36.84495 10.22408 30 ft 14 kts 245°
2026-05-06 10:01 36.84481 10.22294 30 ft 13 kts 270°
2026-05-06 10:01 36.84494 10.22190 30 ft 12 kts 283°
2026-05-06 10:01 36.84514 10.22098 30 ft 11 kts 294°
2026-05-06 10:02 36.84575 10.22087 30 ft 10 kts 12°
2026-05-06 10:02 36.84654 10.22108 30 ft 13 kts 12°
2026-05-06 10:02 36.84675 10.22075 30 ft 5 kts 249°
2026-05-06 10:02 36.84661 10.22037 30 ft 5 kts 245°
2026-05-06 10:03 36.84649 10.22004 30 ft 4 kts 245°
2026-05-06 10:03 36.84645 10.21995 30 ft 0 kts 244°